HULIANWANG DIGUI 6A

Last updated on Thu Aug 14 2025 00:02:07 GMT+0000 (Coordinated Universal Time)

1 65043U 25162A 25224.66865725 .00000002 00000+0 96347-4 0 9998 2 65043 50.0017 320.7475 0008027 309.4302 50.5891 14.04173515 1874
UTC large
Height (km)
Speed (km/s)
/
Latitude / Longitude
Inclination (degrees)
Orbital Period (minutes)
Azimuth
Elevation
Range (km)
Doppler Factor

Next 0 passes for location: London (51.5072 / 0.1276)

Sorry there are no passes over London.